{"data":{"norad_id":67371,"epoch":"2026-09-20T11:44:10.641984Z","epoch_age_seconds":101311,"freshness":"FRESH","line1":"1 67371U 26004J   26263.48901206  .00003020  00000+0  31886-3 0  9998","line2":"2 67371  97.8087 261.0160 0006136 161.7649 198.3790 14.90000028 37495","mean_motion":14.90000028,"eccentricity":0.0006136,"inclination_deg":97.8087,"raan_deg":261.016,"arg_perigee_deg":161.7649,"mean_anomaly_deg":198.379,"bstar":0.00031886,"rev_number":3749,"period_min":96.644293485879,"perigee_km":593.6550597385,"apogee_km":602.21609600607,"semimajor_km":6976.0725778723,"source":"CELESTRAK","updated_at":"2026-09-21T09:00:16.592881Z"}}